Location: Newark
(20.1200°S, 168.9600°E)
Time: 22:27:28
(UTC+00:00)

LightSail 2 - Visible Passes

Search period start: 22 November 2019 00:00
Search period end: 02 December 2019 00:00
Orbit: 698 x 729 km, 24.0° (Epoch: 22 November)

Date Brightness Start Highest point End Pass type
(mag) Time Alt. Az. Time Alt. Az. Time Alt. Az.
27 Nov 7.4 17:09:20 10° N 17:11:43 13° NNE 17:14:06 10° NE visible
29 Nov 6.8 16:57:34 12° NNW 17:01:09 23° NNE 17:05:11 10° ENE visible
30 Nov 7.1 16:03:10 16° NNE 16:03:16 16° NNE 16:06:24 10° ENE visible
01 Dec 6.0 16:47:42 20° NNW 16:50:35 37° NNE 16:55:22 10° E visible
